Tracking 26951 objects as of 4-Feb-2023
HD Live streaming from Space Station
objects crossing your sky now

NOAA 16 DEB

Track NOAA 16 DEB now!
10-day predictions


NORAD ID: 41067
Int'l Code: 2000-055AA
Perigee: 850.5 km
Apogee: 857.7 km
Inclination: 98.7 °
Period: 101.9 minutes
Semi major axis: 7225 km
RCS: Unknown
Launch date: September 21, 2000
Source: United States (US)
Launch site: AIR FORCE WESTERN TEST RANGE (AFWTR)

Note: This is SATELLITE DEBRIS
Your satellite tracking list
Your tracking list is empty




NASA's NSSDC Master Catalog

Two Line Element Set (TLE):
1 41067U 00055AA  23034.14080141  .00000912  00000-0  50598-3 0  9991
2 41067  98.6657  95.3116 0004944 199.2117 160.8871 14.13632547370745
Source of the keplerian elements: AFSPC